{"data":{"norad_id":63938,"epoch":"2026-09-20T22:08:53.254176Z","epoch_age_seconds":110557,"freshness":"FRESH","line1":"1 63938U 25098N   26263.92283859  .00009209  00000+0  32439-3 0  9991","line2":"2 63938  69.9993 139.9314 0002746 268.0115  92.0745 15.29583742 75856","mean_motion":15.29583742,"eccentricity":0.0002746,"inclination_deg":69.9993,"raan_deg":139.9314,"arg_perigee_deg":268.0115,"mean_anomaly_deg":92.0745,"bstar":0.00032439,"rev_number":7585,"period_min":94.14326005565,"perigee_km":475.17328655737,"apogee_km":478.93815840056,"semimajor_km":6855.192722479,"source":"CELESTRAK","updated_at":"2026-09-21T09:00:35.151341Z"}}